Location: Bridgewater
(44.3670°N, 64.5170°W)
Time: 20:47:35
(UTC-03:00)

Amateur Radio Satellites - All Passes

Search period start: 29 March 2015 20:17
Search period end: 30 March 2015 20:17
Location: Bridgewater, 44.3670°N, 64.5170°W

Satellite Date Start Highest point End Downlink Frequencies (MHz)
Time Altitude Azimuth
SO-50 29 Mar 20:18:49 20:23:26 62° 309° (NW) 20:28:14 436.795
HO-68 29 Mar 20:23:34 20:30:19 48° 65° (ENE) 20:37:11 435.675
M-CUBED/EXP-1 PRIME 29 Mar 20:26:47 20:30:06 18° 303° (WNW) 20:33:15 437.505
AAUSAT CUBESAT 2 29 Mar 20:27:54 20:30:32 17° 65° (ENE) 20:33:18 437.432
BEESAT 3 29 Mar 20:28:24 20:32:02 30° 244° (WSW) 20:35:33 437.485
GONETS M04 29 Mar 20:29:55 20:38:38 88° 280° (W) 20:47:27
SEEDS 29 Mar 20:32:06 20:35:32 25° 68° (ENE) 20:39:04 437.485
RS-15 29 Mar 20:45:02 20:55:57 78° 307° (NW) 21:07:10 29.354- 29.394
BRITE-PL 29 Mar 20:51:56 20:56:38 89° 77° (ENE) 21:01:02 437.365/2234.400
COMPASS 1 29 Mar 20:53:51 20:57:38 34° 70° (ENE) 21:01:30 437.405
Oscar 11 29 Mar 20:54:34 20:57:15 17° 64° (ENE) 21:00:05 145.826/435.025
CUBESAT XI-V 29 Mar 20:59:47 21:03:35 25° 293° (WNW) 21:07:15 437.345
AIST 2 29 Mar 21:04:09 21:08:12 43° 242° (WSW) 21:12:10 435.215
CINEMA 3 29 Mar 21:04:19 21:07:49 27° 69° (ENE) 21:11:21 145.822/145.860
FUNcube-1 29 Mar 21:07:15 21:08:20 11° 61° (ENE) 21:09:36 145.935
DANDE 29 Mar 21:09:37 21:11:29 16° 96° (E) 21:13:17 436.750
UWE-3 29 Mar 21:10:43 21:13:01 15° 64° (ENE) 21:15:30 435.000/436.395/437.385
CUBEBUG 2 29 Mar 21:15:26 21:18:25 20° 66° (ENE) 21:21:31 437.445
ZACube-1 29 Mar 21:18:52 21:21:10 15° 64° (ENE) 21:23:37 437.345
CANX-2 29 Mar 21:24:04 21:28:17 69° 259° (WSW) 21:32:34 2200.000
DOVE 4 29 Mar 21:25:34 21:29:55 88° 80° (E) 21:34:07 437.250
GOMX 1 29 Mar 21:38:02 21:42:21 46° 261° (W) 21:46:28 467.674
CUTE 1.7 + AOD 2 29 Mar 21:38:05 21:42:14 53° 261° (W) 21:46:25 437.475
DELFI C3 29 Mar 21:40:11 21:43:53 35° 71° (ENE) 21:47:39 145.870
PRISM 29 Mar 21:46:13 21:46:41 10° 300° (WNW) 21:46:57 437.425
STRAND 1 29 Mar 21:52:22 21:56:00 19° 298° (WNW) 21:59:28 437.568
UKube-1 29 Mar 21:59:49 22:03:38 32° 68° (ENE) 22:07:31 .
CUSAT 1 29 Mar 22:00:40 22:03:23 47° 282° (WNW) 22:05:55 437.405
AAUSAT CUBESAT 2 29 Mar 22:01:47 22:05:50 48° 262° (W) 22:09:56 437.432
SO-50 29 Mar 22:02:21 22:05:02 14° 331° (NNW) 22:07:39 436.795
HUMSAT D 29 Mar 22:06:51 22:10:07 24° 68° (ENE) 22:13:29 437.325/437.525
SEEDS 29 Mar 22:07:30 22:11:16 31° 265° (W) 22:15:02 437.485
DX 1 29 Mar 22:10:01 22:14:08 42° 71° (ENE) 22:18:17 434.975-435.025
HO-68 29 Mar 22:11:42 22:18:15 36° 264° (W) 22:24:45 435.675
Oscar 11 29 Mar 22:28:52 22:33:05 52° 261° (W) 22:37:20 145.826/435.025
COMPASS 1 29 Mar 22:30:10 22:33:27 22° 268° (W) 22:36:42 437.405
GONETS M04 29 Mar 22:30:38 22:37:01 21° 302° (WNW) 22:43:03
ISS 29 Mar 22:33:57 22:35:44 14° 134° (SE) 22:37:36 145.825
FUNcube-1 29 Mar 22:39:59 22:44:07 77° 257° (WSW) 22:48:18 145.935
CINEMA 3 29 Mar 22:41:26 22:45:02 27° 265° (W) 22:48:34 145.822/145.860
UWE-3 29 Mar 22:45:08 22:49:12 53° 260° (W) 22:53:18 435.000/436.395/437.385
50 SAT 29 Mar 22:49:28 22:53:11 44° 72° (ENE) 22:56:59 437.505
VELOX 1 29 Mar 22:50:56 22:55:13 49° 72° (ENE) 22:59:32 145.980
CUBEBUG 2 29 Mar 22:51:02 22:54:55 38° 263° (W) 22:58:49 437.445
CUBEBUG 1 29 Mar 22:51:05 22:54:34 24° 66° (ENE) 22:58:06 437.445
ZACube-1 29 Mar 22:53:06 22:57:09 54° 260° (W) 23:01:15 437.345
DANDE 29 Mar 22:53:07 22:54:44 14° 288° (WNW) 22:56:11 436.750
AISAT 29 Mar 22:55:40 23:00:01 57° 73° (ENE) 23:04:24 437.250
UNISAT 6 29 Mar 22:57:08 23:00:11 18° 91° (E) 23:03:26 437.425
RS-15 29 Mar 23:00:50 23:10:28 33° 337° (NNW) 23:20:17 29.354- 29.394
PCSat 29 Mar 23:03:05 23:07:22 23° 41° (NE) 23:11:43 145.827
TIGRISAT 29 Mar 23:06:56 23:10:25 22° 92° (E) 23:14:03 435.000
DELFI C3 29 Mar 23:16:06 23:19:12 20° 268° (W) 23:22:15 145.870
ESTCUBE 1 29 Mar 23:26:02 23:30:31 60° 73° (ENE) 23:35:01 437.505/2401.250
QB50P1 29 Mar 23:31:55 23:34:57 19° 92° (E) 23:38:06 145.935-145.965
DUCHIFAT 1 29 Mar 23:33:35 23:36:38 20° 92° (E) 23:39:47 145.980
UKube-1 29 Mar 23:36:10 23:39:50 26° 266° (W) 23:43:26 .
ANTELSAT 29 Mar 23:36:46 23:41:10 44° 98° (E) 23:45:38 437.575/2403.000
HUMSAT D 29 Mar 23:42:08 23:45:48 30° 265° (W) 23:49:27 437.325/437.525
QB50P2 29 Mar 23:46:24 23:50:04 28° 95° (E) 23:53:46 145.880/145.840
DX 1 29 Mar 23:47:24 23:50:37 19° 268° (W) 23:53:43 434.975-435.025
ISS 30 Mar 00:08:31 00:11:46 82° 327° (NNW) 00:15:03 145.825
BUGSAT 1 30 Mar 00:12:28 00:16:12 36° 97° (E) 00:19:57 437.445
POPSAT HIP 1 30 Mar 00:14:46 00:18:56 56° 100° (E) 00:23:07 437.405
TISAT 1 30 Mar 00:22:32 00:26:34 47° 72° (ENE) 00:30:39 437.305
YUBILEINY 30 Mar 00:24:35 00:32:22 34° 67° (ENE) 00:40:14 435.215
NANOSAT C BR1 30 Mar 00:25:12 00:29:27 73° 103° (ESE) 00:33:39 145.865
50 SAT 30 Mar 00:26:05 00:28:25 15° 270° (W) 00:30:37 437.505
CUBEBUG 1 30 Mar 00:26:41 00:30:46 36° 263° (W) 00:34:50 437.445
VELOX 1 30 Mar 00:29:07 00:32:07 17° 269° (W) 00:35:00 145.980
POLYITAN 1 30 Mar 00:29:45 00:34:01 84° 103° (ESE) 00:38:16 437.675
UNISAT 6 30 Mar 00:32:51 00:37:17 51° 288° (WNW) 00:41:48 437.425
ITUPSAT 1 30 Mar 00:33:36 00:35:44 13° 60° (ENE) 00:38:05 437.325
SPROUT 30 Mar 00:33:58 00:38:15 74° 75° (ENE) 00:42:32 437.525
AISAT 30 Mar 00:34:26 00:37:04 15° 271° (W) 00:39:31 437.250
TIGRISAT 30 Mar 00:43:03 00:47:21 41° 289° (WNW) 00:51:41 435.000
PCSat 30 Mar 00:45:55 00:51:20 69° 242° (WSW) 00:56:43 145.827
ESTCUBE 1 30 Mar 01:05:10 01:07:51 15° 271° (W) 01:10:22 437.505/2401.250
QB50P1 30 Mar 01:07:04 01:11:02 39° 289° (WNW) 01:14:58 145.935-145.965
DUCHIFAT 1 30 Mar 01:08:43 01:12:39 38° 289° (WNW) 01:16:33 145.980
ANTELSAT 30 Mar 01:14:12 01:17:43 22° 294° (WNW) 01:21:11 437.575/2403.000
RS-15 30 Mar 01:18:10 01:27:18 28° 11° (N) 01:36:50 29.354- 29.394
SWISSCUBE 30 Mar 01:18:41 01:23:02 36° 69° (ENE) 01:27:27 437.505
BEESAT 30 Mar 01:21:36 01:25:56 35° 68° (ENE) 01:30:20 436.000
QB50P2 30 Mar 01:22:18 01:25:57 28° 292° (WNW) 01:29:31 145.880/145.840
ISS 30 Mar 01:45:44 01:48:32 25° 349° (NNW) 01:51:19 145.825
BUGSAT 1 30 Mar 01:48:31 01:51:30 20° 294° (WNW) 01:54:25 437.445
POPSAT HIP 1 30 Mar 01:51:55 01:54:26 15° 297° (WNW) 01:56:51 437.405
STARS 30 Mar 01:58:00 01:58:39 10° 59° (ENE) 01:59:32 437.465
TISAT 1 30 Mar 01:59:56 02:02:42 16° 270° (W) 02:05:17 437.305
NANOSAT C BR1 30 Mar 02:03:01 02:04:48 12° 298° (WNW) 02:06:23 145.865
ITUPSAT 1 30 Mar 02:08:11 02:13:01 85° 258° (WSW) 02:17:53 437.325
POLYITAN 1 30 Mar 02:08:11 02:09:22 11° 299° (WNW) 02:10:21 437.675
SPROUT 30 Mar 02:13:48 02:14:57 11° 273° (W) 02:15:50 437.525
ITAMSAT 1 30 Mar 02:16:51 02:17:51 11° 85° (E) 02:19:11 435.822/435.867
YUBILEINY 30 Mar 02:21:08 02:29:44 58° 269° (W) 02:38:13 435.215
Oscar 19 30 Mar 02:46:27 02:51:36 65° 101° (ESE) 02:56:46 437.125/150
SWISSCUBE 30 Mar 02:56:52 03:00:59 27° 266° (W) 03:05:03 437.505
KKS-1 30 Mar 02:59:16 03:03:39 65° 74° (ENE) 03:08:04 437.445
BEESAT 30 Mar 02:59:45 03:03:52 27° 266° (W) 03:07:55 436.000
Gurwin Techsat 1B 30 Mar 03:05:51 03:10:17 27° 93° (E) 03:14:48 435.225
SO-50 30 Mar 03:08:36 03:12:59 31° 42° (NE) 03:17:25 436.795
ISS 30 Mar 03:22:55 03:25:37 24° 9° (N) 03:28:20 145.825
STARS 30 Mar 03:30:06 03:34:29 88° 70° (ENE) 03:38:53 437.465
RS-15 30 Mar 03:31:58 03:43:02 54° 42° (NE) 03:54:40 29.354- 29.394
ITAMSAT 1 30 Mar 03:53:03 03:58:16 85° 101° (E) 04:03:27 435.822/435.867
M-CUBED/EXP-1 PRIME 30 Mar 04:08:43 04:10:53 14° 54° (NE) 04:13:18 437.505
YUBILEINY 30 Mar 04:23:15 04:24:48 10° 288° (WNW) 04:25:35 435.215
Oscar 19 30 Mar 04:26:56 04:30:31 19° 298° (WNW) 04:33:57 437.125/150
AIST 1 30 Mar 04:27:41 04:31:50 42° 93° (E) 04:36:01
O/OREOS (USA 219) 30 Mar 04:37:04 04:41:35 58° 110° (ESE) 04:46:07 437.305
MOZHAYETS 4 30 Mar 04:38:06 04:42:25 41° 71° (ENE) 04:46:50
KKS-1 30 Mar 04:38:38 04:40:49 13° 272° (W) 04:42:48 437.445
GONETS M04 30 Mar 04:45:16 04:47:02 11° 47° (NE) 04:49:25
Gurwin Techsat 1B 30 Mar 04:45:26 04:50:27 42° 291° (WNW) 04:55:24 435.225
AO-7 30 Mar 04:47:42 04:55:15 38° 97° (E) 05:02:54 29.400- 29.500
SO-50 30 Mar 04:49:00 04:53:43 44° 242° (WSW) 04:58:22 436.795
ISS 30 Mar 04:59:12 05:02:27 67° 29° (NNE) 05:05:39 145.825
HORYU 2 30 Mar 05:01:51 05:06:23 83° 103° (ESE) 05:10:54 437.375
JAS-2 30 Mar 05:03:05 05:10:31 47° 95° (E) 05:17:24 435.910
AUBIESAT-1 30 Mar 05:16:10 05:20:10 54° 67° (ENE) 05:24:32 437.475
ITAMSAT 1 30 Mar 05:34:16 05:37:09 15° 301° (WNW) 05:39:49 435.822/435.867
M-CUBED/EXP-1 PRIME 30 Mar 05:41:07 05:45:10 73° 252° (WSW) 05:49:37 437.505
RS-15 30 Mar 05:44:38 05:55:43 55° 246° (WSW) 06:07:09 29.354- 29.394
STRAND 1 30 Mar 05:53:16 05:56:06 15° 60° (ENE) 05:59:08 437.568
VERMONT LUNAR 30 Mar 05:58:34 06:01:02 19° 158° (SSE) 06:03:32 437.305
AIST 1 30 Mar 06:06:35 06:09:46 19° 292° (WNW) 06:12:50
MOZHAYETS 4 30 Mar 06:16:15 06:19:53 22° 269° (W) 06:23:26
O/OREOS (USA 219) 30 Mar 06:18:09 06:21:27 19° 309° (NW) 06:24:38 437.305
CUTE-I 30 Mar 06:20:24 06:22:48 13° 86° (E) 06:25:29 437.470
Cubesat XI-IV 30 Mar 06:20:42 06:23:12 14° 87° (E) 06:26:00 437.490
CUBESAT XI-V 30 Mar 06:26:47 06:31:15 45° 71° (ENE) 06:35:45 437.345
ISS 30 Mar 06:36:17 06:38:33 17° 225° (SW) 06:40:45 145.825
GONETS M04 30 Mar 06:38:11 06:46:43 51° 73° (ENE) 06:55:19
AO-7 30 Mar 06:40:21 06:48:20 53° 296° (WNW) 06:56:15 29.400- 29.500
HORYU 2 30 Mar 06:40:33 06:42:28 12° 300° (WNW) 06:44:11 437.375
PHONESAT 2.4 30 Mar 06:44:15 06:46:52 20° 157° (SSE) 06:49:30 2401.200-2431.200
JAS-2 30 Mar 06:48:14 06:55:27 41° 296° (WNW) 07:02:06 435.910
AUBIESAT-1 30 Mar 06:52:58 06:55:30 15° 267° (W) 06:57:58 437.475
CUSAT 1 30 Mar 06:53:15 06:53:59 10° 67° (ENE) 06:55:03 437.405
PRISM 30 Mar 06:59:10 07:03:23 81° 75° (ENE) 07:07:38 437.425
STRAND 1 30 Mar 07:29:34 07:34:43 80° 255° (WSW) 07:39:55 437.568
VERMONT LUNAR 30 Mar 07:35:08 07:38:18 40° 174° (S) 07:41:28 437.305
DANDE 30 Mar 07:44:34 07:47:48 24° 74° (ENE) 07:51:55 436.750
CUTE-I 30 Mar 07:58:19 08:03:40 82° 287° (WNW) 08:08:59 437.470
Cubesat XI-IV 30 Mar 07:58:44 08:04:05 81° 287° (WNW) 08:09:24 437.490
RS-15 30 Mar 08:03:31 08:05:58 10° 265° (W) 08:07:08 29.354- 29.394
CUBESAT XI-V 30 Mar 08:05:21 08:08:57 21° 269° (W) 08:12:26 437.345
PHONESAT 2.4 30 Mar 08:21:25 08:24:45 41° 173° (S) 08:28:06 2401.200-2431.200
CUSAT 1 30 Mar 08:32:46 08:36:59 84° 262° (W) 08:42:42 437.405
GONETS M04 30 Mar 08:35:27 08:43:25 38° 274° (W) 08:51:14
AO-7 30 Mar 08:35:27 08:39:25 14° 318° (NW) 08:43:02 29.400- 29.500
BRITE-PL 30 Mar 08:55:16 08:58:29 21° 93° (E) 09:01:53 437.365/2234.400
CANX-2 30 Mar 09:08:43 09:11:42 19° 91° (E) 09:14:48 2200.000
VERMONT LUNAR 30 Mar 09:12:36 09:15:43 35° 191° (S) 09:18:50 437.305
CUTE 1.7 + AOD 2 30 Mar 09:22:13 09:25:38 23° 93° (E) 09:29:09 437.475
DOVE 4 30 Mar 09:23:11 09:26:20 20° 92° (E) 09:29:43 437.250
DANDE 30 Mar 09:27:25 09:31:04 31° 263° (W) 09:35:42 436.750
HO-68 30 Mar 09:36:43 09:43:28 42° 97° (E) 09:50:14 435.675
GOMX 1 30 Mar 09:37:31 09:41:32 39° 98° (E) 09:45:46 467.674
CUTE-I 30 Mar 09:40:31 09:43:01 13° 303° (WNW) 09:45:15 437.470
Cubesat XI-IV 30 Mar 09:41:00 09:43:26 13° 303° (WNW) 09:45:37 437.490
AAUSAT CUBESAT 2 30 Mar 09:43:44 09:47:07 23° 93° (E) 09:50:34 437.432
BEESAT 2 30 Mar 09:49:10 09:50:45 12° 110° (ESE) 09:52:34 435.950
SEEDS 30 Mar 09:49:54 09:53:54 38° 97° (E) 09:57:55 437.485
UNISAT 6 30 Mar 09:58:24 10:01:20 19° 65° (ENE) 10:04:26 437.425
PHONESAT 2.4 30 Mar 09:59:30 10:02:48 38° 190° (S) 10:06:08 2401.200-2431.200
TIGRISAT 30 Mar 10:07:53 10:11:09 22° 66° (ENE) 10:14:33 435.000
COMPASS 1 30 Mar 10:11:00 10:15:11 53° 99° (E) 10:19:21 437.405
Oscar 11 30 Mar 10:14:58 10:18:32 25° 93° (E) 10:22:10 145.826/435.025
BEESAT 3 30 Mar 10:22:59 10:26:37 32° 117° (ESE) 10:30:21 437.485
QB50P1 30 Mar 10:26:45 10:29:42 19° 65° (ENE) 10:32:46 145.935-145.965
FUNcube-1 30 Mar 10:27:27 10:30:26 18° 91° (E) 10:33:36 145.935
DUCHIFAT 1 30 Mar 10:28:06 10:31:04 19° 65° (ENE) 10:34:08 145.980
CINEMA 3 30 Mar 10:33:16 10:37:37 56° 100° (E) 10:42:09 145.822/145.860
BRITE-PL 30 Mar 10:33:21 10:37:10 34° 289° (WNW) 10:41:06 437.365/2234.400
UWE-3 30 Mar 10:33:23 10:37:04 26° 94° (E) 10:40:55 435.000/436.395/437.385
ANTELSAT 30 Mar 10:37:40 10:41:44 45° 72° (ENE) 10:45:55 437.575/2403.000
CUBEBUG 2 30 Mar 10:39:53 10:43:58 36° 97° (E) 10:48:12 437.445
ZACube-1 30 Mar 10:40:11 10:43:48 25° 94° (E) 10:47:33 437.345
QB50P2 30 Mar 10:41:12 10:44:44 27° 68° (ENE) 10:48:21 145.880/145.840
CANX-2 30 Mar 10:43:47 10:47:54 43° 288° (WNW) 10:51:58 2200.000
VERMONT LUNAR 30 Mar 10:50:56 10:52:54 15° 206° (SSW) 10:54:50 437.305
DELFI C3 30 Mar 10:53:04 10:57:03 48° 99° (E) 11:01:02 145.870
CUTE 1.7 + AOD 2 30 Mar 10:57:44 11:01:40 34° 290° (WNW) 11:05:33 437.475
DOVE 4 30 Mar 11:00:15 11:04:18 41° 288° (WNW) 11:08:33 437.250
AIST 2 30 Mar 11:03:52 11:07:25 26° 115° (ESE) 11:11:04 435.215
BUGSAT 1 30 Mar 11:04:12 11:07:55 33° 70° (ENE) 11:11:39 437.445
POPSAT HIP 1 30 Mar 11:09:09 11:13:14 51° 73° (ENE) 11:17:21 437.405
GOMX 1 30 Mar 11:16:18 11:19:32 21° 293° (WNW) 11:22:44 467.674
AAUSAT CUBESAT 2 30 Mar 11:19:01 11:22:50 33° 290° (WNW) 11:26:36 437.432
NANOSAT C BR1 30 Mar 11:19:17 11:23:28 67° 74° (ENE) 11:27:39 145.865
ESTCUBE 1 30 Mar 11:19:46 11:20:53 11° 86° (E) 11:22:16 437.505/2401.250
UKube-1 30 Mar 11:21:21 11:25:31 45° 99° (E) 11:29:40 .
HUMSAT D 30 Mar 11:24:11 11:28:07 36° 97° (E) 11:32:06 437.325/437.525
BEESAT 2 30 Mar 11:24:17 11:28:24 72° 306° (NW) 11:32:35 435.950
POLYITAN 1 30 Mar 11:24:18 11:28:31 78° 75° (ENE) 11:32:44 437.675
HO-68 30 Mar 11:24:31 11:31:14 42° 296° (WNW) 11:37:50 435.675
SEEDS 30 Mar 11:26:12 11:29:32 22° 293° (WNW) 11:32:44 437.485
DX 1 30 Mar 11:32:38 11:36:58 63° 102° (ESE) 11:41:15 434.975-435.025
UNISAT 6 30 Mar 11:33:45 11:37:51 44° 262° (W) 11:42:01 437.425
PHONESAT 2.4 30 Mar 11:38:19 11:40:39 17° 205° (SSW) 11:42:57 2401.200-2431.200
TIGRISAT 30 Mar 11:43:48 11:47:44 36° 263° (W) 11:51:44 435.000
COMPASS 1 30 Mar 11:47:50 11:50:31 16° 296° (WNW) 11:53:04 437.405
Oscar 11 30 Mar 11:50:50 11:54:47 33° 291° (WNW) 11:58:40 145.826/435.025
50 SAT 30 Mar 12:00:14 12:04:14 59° 100° (E) 12:08:15 437.505
BEESAT 3 30 Mar 12:01:01 12:04:41 30° 315° (NW) 12:08:22 437.485
QB50P1 30 Mar 12:01:19 12:05:20 41° 262° (W) 12:09:21 145.935-145.965
DUCHIFAT 1 30 Mar 12:02:40 12:06:40 41° 262° (W) 12:10:39 145.980
FUNcube-1 30 Mar 12:02:50 12:07:02 46° 288° (WNW) 12:11:18 145.935
UWE-3 30 Mar 12:09:43 12:13:40 32° 290° (WNW) 12:17:39 435.000/436.395/437.385
CINEMA 3 30 Mar 12:11:40 12:14:30 17° 295° (WNW) 12:17:15 145.822/145.860
CUBEBUG 1 30 Mar 12:13:49 12:17:48 35° 97° (E) 12:21:47 437.445
ANTELSAT 30 Mar 12:15:57 12:18:52 17° 270° (W) 12:21:40 437.575/2403.000
VELOX 1 30 Mar 12:16:12 12:20:38 81° 101° (E) 12:25:02 145.980
ZACube-1 30 Mar 12:16:17 12:20:14 33° 290° (WNW) 12:24:14 437.345
QB50P2 30 Mar 12:16:55 12:20:36 28° 265° (W) 12:24:16 145.880/145.840
CUBEBUG 2 30 Mar 12:16:58 12:20:32 24° 292° (WNW) 12:24:07 437.445
AISAT 30 Mar 12:21:17 12:25:44 87° 278° (W) 12:30:08 437.250
SPROUT 30 Mar 12:21:21 12:22:40 11° 87° (E) 12:24:13 437.525
Oscar 19 30 Mar 12:28:20 12:31:18 16° 60° (ENE) 12:34:27 437.125/150
DELFI C3 30 Mar 12:29:15 12:31:54 16° 295° (WNW) 12:34:25 145.870
BUGSAT 1 30 Mar 12:40:11 12:43:30 22° 267° (W) 12:46:43 437.445
AIST 2 30 Mar 12:41:54 12:45:54 37° 313° (NW) 12:49:55 435.215
POPSAT HIP 1 30 Mar 12:47:00 12:49:30 15° 270° (W) 12:51:50 437.405
ESTCUBE 1 30 Mar 12:53:54 12:58:26 78° 285° (WNW) 13:02:55 437.505/2401.250
UKube-1 30 Mar 12:58:16 13:01:23 19° 296° (WNW) 13:04:23 .
NANOSAT C BR1 30 Mar 12:58:20 12:59:52 11° 273° (W) 13:01:10 145.865
HUMSAT D 30 Mar 13:00:22 13:03:43 22° 293° (WNW) 13:07:01 437.325/437.525
BEESAT 2 30 Mar 13:05:18 13:07:20 13° 327° (NNW) 13:09:18 435.950
O/OREOS (USA 219) 30 Mar 13:07:01 13:10:14 19° 51° (NE) 13:13:32 437.305
DX 1 30 Mar 13:10:20 13:12:46 14° 298° (WNW) 13:15:02 434.975-435.025
YUBILEINY 30 Mar 13:27:57 13:35:37 36° 85° (E) 13:43:29 435.215
ITAMSAT 1 30 Mar 13:34:55 13:38:47 22° 63° (ENE) 13:42:47 435.822/435.867
50 SAT 30 Mar 13:36:40 13:38:44 13° 296° (WNW) 13:40:39 437.505
TISAT 1 30 Mar 13:41:04 13:45:16 70° 101° (ESE) 13:49:27 437.305
PCSat 30 Mar 13:50:08 13:51:34 11° 103° (ESE) 13:53:21 145.827
CUBEBUG 1 30 Mar 13:50:33 13:54:01 23° 294° (WNW) 13:57:23 437.445
VELOX 1 30 Mar 13:54:52 13:56:39 12° 300° (WNW) 13:58:13 145.980
SPROUT 30 Mar 13:55:03 13:59:20 69° 284° (WNW) 14:03:35 437.525
AO-7 30 Mar 14:00:40 14:04:59 16° 44° (NE) 14:09:39 29.400- 29.500
AISAT 30 Mar 14:00:49 14:01:42 10° 301° (WNW) 14:02:21 437.250
Oscar 19 30 Mar 14:05:00 14:10:07 76° 257° (WSW) 14:15:16 437.125/150
ITUPSAT 1 30 Mar 14:08:00 14:11:40 22° 92° (E) 14:15:25 437.325
Gurwin Techsat 1B 30 Mar 14:28:20 14:33:26 50° 71° (ENE) 14:38:35 435.225
HORYU 2 30 Mar 14:28:47 14:30:03 11° 60° (ENE) 14:31:31 437.375
AIST 1 30 Mar 14:34:37 14:36:39 13° 65° (ENE) 14:38:52
O/OREOS (USA 219) 30 Mar 14:45:36 14:50:04 55° 251° (WSW) 14:54:29 437.305
KKS-1 30 Mar 14:51:18 14:52:24 11° 87° (E) 14:53:47 437.445
SWISSCUBE 30 Mar 14:54:40 14:59:28 69° 102° (ESE) 15:04:13 437.505
BEESAT 30 Mar 14:57:26 15:02:13 68° 101° (ESE) 15:06:59 436.000
ITAMSAT 1 30 Mar 15:12:50 15:17:57 55° 260° (W) 15:23:06 435.822/435.867
JAS-2 30 Mar 15:16:50 15:22:33 27° 59° (ENE) 15:28:50 435.910
TISAT 1 30 Mar 15:18:43 15:20:35 12° 298° (WNW) 15:22:17 437.305
STARS 30 Mar 15:19:46 15:22:06 14° 89° (E) 15:24:38 437.465
YUBILEINY 30 Mar 15:23:35 15:32:11 54° 286° (WNW) 15:40:49 435.215
PCSat 30 Mar 15:28:48 15:34:13 80° 118° (ESE) 15:39:41 145.827
ITUPSAT 1 30 Mar 15:45:14 15:49:48 44° 290° (WNW) 15:54:19 437.325
AO-7 30 Mar 15:48:12 15:56:16 60° 65° (ENE) 16:04:24 29.400- 29.500
HORYU 2 30 Mar 16:01:39 16:06:05 88° 260° (W) 16:10:35 437.375
Gurwin Techsat 1B 30 Mar 16:09:31 16:13:44 23° 268° (W) 16:17:51 435.225
AIST 1 30 Mar 16:10:34 16:14:50 60° 265° (W) 16:19:02
KKS-1 30 Mar 16:25:14 16:29:42 77° 285° (WNW) 16:34:09 437.445
SWISSCUBE 30 Mar 16:33:55 16:36:50 16° 299° (WNW) 16:39:35 437.505
BEESAT 30 Mar 16:36:38 16:39:36 16° 299° (WNW) 16:42:24 436.000
STARS 30 Mar 16:54:40 16:59:01 58° 287° (WNW) 17:03:21 437.465
JAS-2 30 Mar 16:59:56 17:06:54 72° 259° (W) 17:14:38 435.910
PCSat 30 Mar 17:14:12 17:18:20 21° 321° (NW) 17:22:22 145.827
YUBILEINY 30 Mar 17:28:37 17:31:45 12° 312° (NW) 17:34:17 435.215
AO-7 30 Mar 17:42:11 17:49:34 33° 265° (W) 17:56:47 29.400- 29.500
CUTE-I 30 Mar 17:43:03 17:47:29 28° 65° (ENE) 17:52:01 437.470
Cubesat XI-IV 30 Mar 17:43:33 17:48:01 28° 65° (ENE) 17:52:36 437.490
RS-15 30 Mar 18:01:45 18:09:00 22° 102° (ESE) 18:16:53 29.354- 29.394
BEESAT 2 30 Mar 18:05:07 18:07:57 18° 38° (NE) 18:10:49 435.950
MOZHAYETS 4 30 Mar 18:08:24 18:13:06 81° 103° (ESE) 18:17:44
AUBIESAT-1 30 Mar 18:30:30 18:34:59 37° 101° (ESE) 18:39:23 437.475
BEESAT 3 30 Mar 18:40:15 18:44:04 35° 47° (NE) 18:47:51 437.485
JAS-2 30 Mar 18:50:06 18:53:38 13° 281° (W) 18:56:47 435.910
M-CUBED/EXP-1 PRIME 30 Mar 18:55:47 19:00:40 74° 106° (ESE) 19:05:26 437.505
SO-50 30 Mar 19:04:46 19:09:07 42° 118° (ESE) 19:13:39 436.795
CUTE-I 30 Mar 19:22:17 19:27:24 43° 262° (W) 19:32:30 437.470
Cubesat XI-IV 30 Mar 19:22:52 19:27:58 42° 262° (W) 19:33:04 437.490
AIST 2 30 Mar 19:23:41 19:27:32 32° 45° (NE) 19:31:20 435.215
STRAND 1 30 Mar 19:38:53 19:43:21 30° 95° (E) 19:47:51 437.568
GONETS M04 30 Mar 19:41:05 19:49:25 55° 91° (E) 19:57:54
BEESAT 2 30 Mar 19:42:26 19:46:35 70° 238° (WSW) 19:50:38 435.950
MOZHAYETS 4 30 Mar 19:47:30 19:49:45 13° 299° (WNW) 19:51:45
CUBESAT XI-V 30 Mar 19:59:00 20:03:40 89° 103° (ESE) 20:08:16 437.345
CANX-2 30 Mar 20:03:54 20:06:39 17° 65° (ENE) 20:09:31 2200.000
AUBIESAT-1 30 Mar 20:05:27 20:09:40 29° 299° (WNW) 20:13:44 437.475
BRITE-PL 30 Mar 20:07:47 20:11:50 32° 70° (ENE) 20:15:43 437.365/2234.400
